1509033600.39,6700,12.75,73962.3,-1.63,-16.79,-19.65,0,*67
1509033601.62,6701,12.75,73964.0,-1.67,-16.97,-19.85,0,*6C
1509033602.87,6702,12.75,73966.8,-1.65,-16.89,-19.85,0,*62
1509033604.1,6703,12.75,73964.5,-1.67,-17.03,-19.91,0,*67
1509033605.33,6704,12.75,73962.5,-1.65,-16.83,-19.71,0,*65
1509033606.56,6705,12.75,73962.5,-1.65,-16.97,-19.91,0,*6F
1509033607.79,6706,12.69,73962.0,-1.67,-17.03,-20.05,0,*65
1509033609.03,6707,12.75,73968.0,-1.67,-17.07,-19.95,0,*63
1509033610.25,6708,12.69,73968.3,-1.65,-16.83,-19.71,0,*69
1509033611.46,6709,12.69,73966.5,-1.67,-16.75,-19.75,0,*67
1509033612.67,6710,12.69,73962.3,-1.67,-16.79,-19.75,0,*63
1509033613.9,6711,12.69,73962.5,-1.67,-16.79,-19.61,0,*67
1509033615.13,6712,12.75,73970.0,-1.67,-16.89,-19.81,0,*65
1509033616.33,6713,12.75,73968.8,-1.67,-16.93,-19.91,0,*6E
1509033617.56,6714,12.69,73972.0,-1.67,-16.89,-19.81,0,*63
1509033618.76,6715,12.69,73968.0,-1.67,-16.89,-19.91,0,*63
1509033619.99,6716,12.75,73976.3,-1.65,-16.89,-19.99,0,*6A
1509033621.22,6717,12.75,73978.0,-1.67,-17.03,-20.05,0,*65
1509033622.45,6718,12.75,73982.0,-1.67,-17.03,-20.05,0,*6A
1509033623.71,6719,12.75,73984.5,-1.69,-17.07,-20.09,0,*6D
1509033624.94,6720,12.69,73978.8,-1.71,-17.07,-20.09,0,*6E
1509033626.17,6721,12.75,73972.3,-1.71,-16.83,-19.85,0,*6C
1509033627.38,6722,12.75,73974.3,-1.67,-16.75,-19.91,0,*64
1509033628.62,6723,12.75,73970.5,-1.71,-17.07,-20.09,0,*6D
1509033629.87,6724,12.75,73972.8,-1.67,-17.03,-20.19,0,*68
1509033631.11,6725,12.69,73976.5,-1.71,-17.07,-20.25,0,*65
1509033632.34,6726,12.75,73980.3,-1.69,-16.59,-19.75,0,*6A
1509033633.55,6727,12.69,73974.8,-1.71,-16.45,-19.51,0,*69
1509033634.78,6728,12.75,73972.8,-1.71,-16.37,-19.57,0,*65
1509033635.99,6729,12.75,73968.0,-1.71,-16.41,-19.51,0,*63
1509033637.25,6730,12.69,73974.0,-1.69,-16.45,-19.61,0,*65
1509033638.5,6731,12.69,73968.3,-1.69,-16.31,-19.47,0,*63
1509033639.75,6732,12.69,73976.3,-1.71,-16.51,-19.85,0,*61
1509033640.96,6733,12.75,73976.0,-1.67,-16.59,-19.91,0,*6A
1509033642.19,6734,12.69,73976.0,-1.69,-16.75,-20.05,0,*6A
1509033643.41,6735,12.75,73974.0,-1.71,-16.93,-20.15,0,*6B
1509033644.64,6736,12.69,73968.3,-1.69,-16.93,-20.25,0,*62
1509033645.88,6737,12.69,73966.0,-1.71,-17.07,-20.43,0,*66
1509033647.09,6738,12.69,73966.3,-1.71,-16.97,-20.25,0,*61
1509033648.3,6739,12.69,73966.3,-1.71,-16.97,-20.43,0,*60
1509033649.53,6740,12.69,73964.8,-1.73,-16.97,-20.43,0,*6C
1509033650.75,6741,12.69,73964.3,-1.71,-16.93,-20.35,0,*6A
1509033651.96,6742,12.69,73966.0,-1.71,-16.83,-20.29,0,*65
1509033653.19,6743,12.69,73962.5,-1.71,-16.97,-20.35,0,*6C
1509033654.39,6744,12.69,73956.5,-1.71,-16.93,-20.29,0,*62
1509033655.63,6745,12.69,73952.3,-1.73,-16.79,-20.25,0,*69
1509033656.86,6746,12.69,73958.5,-1.73,-16.55,-20.09,0,*6A
1509033658.08,6747,12.69,73958.0,-1.73,-16.93,-20.29,0,*63
1509033659.31,6748,12.69,73960.5,-1.73,-16.79,-20.29,0,*68
1509033660.57,6749,12.69,73958.5,-1.73,-16.97,-20.49,0,*6F
1509033661.8,6750,12.75,73962.5,-1.73,-16.97,-20.63,0,*6F
1509033663.06,6751,12.75,73960.5,-1.75,-17.17,-20.79,0,*6A
1509033664.28,6752,12.75,73962.8,-1.73,-16.97,-20.63,0,*6D
1509033665.54,6753,12.75,73960.8,-1.73,-17.07,-20.73,0,*65
1509033666.79,6754,12.69,73962.3,-1.75,-17.11,-20.79,0,*69
1509033668.02,6755,12.75,73966.5,-1.73,-16.97,-20.63,0,*6A
1509033669.28,6756,12.69,73966.5,-1.75,-17.17,-20.83,0,*68
1509033670.54,6757,12.69,73964.0,-1.75,-17.03,-20.79,0,*69
1509033671.78,6758,12.69,73962.0,-1.75,-16.89,-20.49,0,*66
1509033672.98,6759,12.75,73964.5,-1.75,-16.83,-20.69,0,*6F
1509033674.22,6760,12.69,73966.5,-1.75,-16.69,-20.39,0,*64
1509033675.43,6761,12.69,73970.5,-1.75,-16.97,-20.69,0,*61
1509033676.71,6762,12.69,73968.0,-1.73,-17.07,-20.99,0,*63
1509033677.96,6763,12.75,73968.5,-1.75,-17.11,-20.99,0,*63
1509033679.22,6764,12.75,73968.3,-1.75,-17.25,-20.99,0,*63
1509033680.5,6765,12.75,73968.3,-1.77,-17.03,-20.83,0,*6F
1509033681.78,6766,12.69,73966.3,-1.77,-17.11,-20.83,0,*6F
1509033683.07,6767,12.69,73964.0,-1.77,-17.17,-20.99,0,*63
1509033684.33,6768,12.69,73960.5,-1.77,-17.25,-21.09,0,*65
1509033685.61,6769,12.69,73966.0,-1.77,-17.03,-20.99,0,*68
1509033686.9,6770,12.69,73964.3,-1.77,-17.03,-20.99,0,*60
1509033688.18,6771,12.69,73962.8,-1.77,-17.11,-20.99,0,*62
1509033689.43,6772,12.69,73960.3,-1.81,-17.11,-21.03,0,*6A
1509033690.69,6773,12.69,73962.0,-1.81,-17.21,-21.23,0,*6A
1509033691.91,6774,12.69,73962.0,-1.81,-17.21,-21.17,0,*6A
1509033693.17,6775,12.69,73962.0,-1.81,-17.21,-21.23,0,*6C
1509033694.4,6776,12.69,73960.5,-1.81,-17.21,-21.17,0,*68
1509033695.6,6777,12.69,73966.5,-1.81,-17.35,-21.39,0,*60
1509033696.81,6778,12.75,73968.8,-1.81,-17.35,-21.39,0,*6F
1509033698.03,6779,12.69,73970.0,-1.81,-17.31,-21.27,0,*65
1509033699.26,6780,12.75,73968.8,-1.81,-17.41,-21.39,0,*6B
1509033700.52,6781,12.69,73964.0,-1.81,-17.25,-21.23,0,*63
1509033701.81,6782,12.69,73966.0,-1.83,-17.25,-21.23,0,*62
1509033703.06,6783,12.75,73966.5,-1.83,-17.11,-21.17,0,*63
1509033704.35,6784,12.69,73968.5,-1.83,-17.11,-21.23,0,*63
1509033705.6,6785,12.75,73972.5,-1.83,-17.07,-21.09,0,*6D
1509033706.85,6786,12.75,73990.3,-1.83,-16.93,-21.03,0,*68
1509033708.09,6787,12.69,73978.3,-1.83,-16.79,-20.89,0,*6E
1509033709.35,6788,12.69,73974.8,-1.83,-16.83,-21.03,0,*67
1509033710.54,6789,12.69,73968.5,-1.81,-16.93,-21.09,0,*6F
1509033711.74,6790,12.69,73968.3,-1.81,-16.79,-20.93,0,*61
1509033713.0,6791,12.75,73968.3,-1.77,-16.59,-20.83,0,*6A
1509033714.24,6792,12.75,73964.3,-1.77,-16.75,-20.93,0,*66
1509033715.5,6793,12.69,73958.0,-1.81,-17.21,-21.23,0,*64
1509033716.7,6794,12.69,73962.8,-1.81,-16.97,-21.17,0,*68
1509033717.89,6795,12.69,73960.3,-1.81,-16.89,-21.09,0,*69
1509033719.12,6796,12.69,73956.5,-1.77,-16.83,-21.09,0,*69
1509033720.38,6797,12.69,73962.3,-1.77,-16.75,-20.99,0,*69
1509033721.64,6798,12.69,73956.0,-1.77,-16.83,-20.99,0,*6F
1509033722.9,6799,12.69,73954.3,-1.77,-17.11,-21.43,0,*62
1509033724.18,6800,12.69,73954.5,-1.77,-17.17,-21.57,0,*6E
1509033725.43,6801,12.69,73954.0,-1.77,-17.45,-21.73,0,*6E
1509033726.69,6802,12.69,73952.3,-1.77,-17.25,-21.63,0,*6A
1509033727.95,6803,12.69,73962.0,-1.77,-17.41,-21.63,0,*69
1509033729.21,6804,12.69,73962.5,-1.77,-17.25,-21.63,0,*6C
1509033730.5,6805,12.69,73960.0,-1.77,-17.41,-21.87,0,*65
1509033731.74,6806,12.69,73956.3,-1.81,-17.55,-21.97,0,*6B
1509033732.98,6807,12.69,73954.3,-1.77,-17.49,-22.03,0,*60
1509033734.17,6808,12.69,73948.5,-1.81,-17.73,-22.11,0,*6C
1509033735.39,6809,12.69,73944.3,-1.81,-17.59,-22.11,0,*65
1509033736.62,6810,12.69,73954.5,-1.81,-17.49,-21.97,0,*61
1509033737.81,6811,12.69,73954.3,-1.81,-17.69,-22.11,0,*6F
1509033739.04,6812,12.69,73956.5,-1.81,-17.73,-22.17,0,*61
1509033740.27,6813,12.69,73954.3,-1.83,-17.69,-22.03,0,*6C
1509033741.52,6814,12.69,73954.5,-1.81,-17.59,-22.17,0,*6F
1509033742.72,6815,12.75,73960.5,-1.81,-17.73,-22.27,0,*65
1509033743.94,6816,12.69,73962.5,-1.81,-17.69,-22.17,0,*6E
1509033745.2,6817,12.69,73964.0,-1.83,-17.59,-22.27,0,*6D
1509033746.42,6818,12.69,73968.5,-1.83,-17.69,-22.27,0,*61
1509033747.65,6819,12.69,73968.3,-1.83,-17.69,-22.41,0,*60
1509033748.9,6820,12.69,73970.8,-1.83,-17.73,-22.47,0,*67
1509033750.1,6821,12.69,73964.5,-1.85,-17.87,-22.57,0,*6A
1509033751.33,6822,12.75,73968.8,-1.85,-18.01,-22.57,0,*68
1509033752.58,6823,12.69,73968.0,-1.83,-18.01,-22.67,0,*6C
1509033753.86,6824,12.69,73966.8,-1.83,-18.01,-22.77,0,*6A
1509033755.11,6825,12.69,73972.0,-1.85,-18.01,-22.73,0,*69
1509033756.33,6826,12.69,73966.8,-1.85,-17.93,-22.57,0,*68
1509033757.59,6827,12.69,73974.5,-1.83,-17.69,-22.31,0,*6A
1509033758.84,6828,12.69,73972.5,-1.85,-17.59,-22.31,0,*60
1509033760.04,6829,12.69,73970.8,-1.85,-17.87,-22.57,0,*62
1509033761.28,6830,12.69,73974.0,-1.85,-17.93,-22.73,0,*69
1509033762.48,6831,12.69,73968.0,-1.85,-18.07,-22.83,0,*65
1509033763.68,6832,12.69,73968.8,-1.85,-18.07,-22.83,0,*66
1509033764.91,6833,12.69,73970.5,-1.85,-18.07,-23.03,0,*6E
1509033766.13,6834,12.69,73972.3,-1.87,-18.17,-22.87,0,*67
1509033767.38,6835,12.69,73980.5,-1.87,-17.45,-22.07,0,*66
1509033768.61,6836,12.69,73976.5,-1.85,-16.65,-21.39,0,*6A
1509033769.89,6837,12.69,73978.5,-1.83,-16.69,-21.53,0,*6D
1509033771.14,6838,12.69,73972.8,-1.83,-17.21,-22.11,0,*6A
1509033772.4,6839,12.69,73960.8,-1.83,-17.35,-22.17,0,*68
1509033773.69,6840,12.69,73962.3,-1.83,-17.59,-22.47,0,*69
1509033774.91,6841,12.69,73954.3,-1.81,-17.55,-22.41,0,*60
1509033776.1,6842,12.69,73950.3,-1.81,-17.73,-22.67,0,*63
1509033777.3,6843,12.69,73950.0,-1.81,-17.87,-22.67,0,*69
1509033778.51,6844,12.69,73946.8,-1.81,-17.87,-22.63,0,*6A
1509033779.76,6845,12.69,73946.8,-1.83,-18.01,-22.83,0,*66
1509033781.02,6846,12.69,73948.3,-1.83,-18.01,-22.97,0,*60
1509033782.28,6847,12.69,73956.0,-1.83,-17.97,-22.93,0,*65
1509033783.54,6848,12.69,73958.5,-1.83,-17.97,-22.93,0,*6A
1509033784.8,6849,12.69,73966.5,-1.83,-17.97,-22.93,0,*6B
1509033786.03,6850,12.75,73968.5,-1.83,-18.11,-23.09,0,*60
1509033787.26,6851,12.69,73964.8,-1.83,-18.11,-23.13,0,*6A
1509033788.49,6852,12.69,73964.3,-1.83,-18.11,-23.09,0,*62
1509033789.69,6853,12.69,73974.5,-1.81,-18.11,-23.09,0,*61
1509033790.89,6854,12.69,73976.3,-1.81,-18.17,-23.13,0,*6B
1509033792.14,6855,12.69,73976.3,-1.81,-18.31,-23.29,0,*67
1509033793.39,6856,12.69,73972.8,-1.83,-18.11,-23.23,0,*6E
1509033794.64,6857,12.69,73966.0,-1.85,-18.35,-23.49,0,*63
1509033795.86,6858,12.69,73962.5,-1.85,-18.49,-23.49,0,*67
1509033797.12,6859,12.69,73966.3,-1.85,-18.31,-23.33,0,*64
1509033798.34,6860,12.69,73966.8,-1.85,-18.45,-23.53,0,*6B
1509033799.56,6861,12.69,73960.3,-1.83,-18.25,-23.39,0,*66
1509033800.78,6862,12.69,73960.0,-1.85,-18.49,-23.53,0,*65
1509033802.01,6863,12.69,73962.3,-1.85,-18.65,-23.85,0,*61
1509033803.24,6864,12.69,73966.5,-1.85,-18.35,-23.43,0,*69
1509033804.44,6865,12.69,73962.8,-1.85,-18.49,-23.43,0,*63
1509033805.69,6866,12.69,73966.8,-1.85,-18.35,-23.33,0,*6C
1509033806.94,6867,12.69,73962.0,-1.85,-18.35,-23.33,0,*6D
1509033808.17,6868,12.69,73966.5,-1.85,-18.35,-23.43,0,*65
1509033809.42,6869,12.69,73966.3,-1.83,-18.01,-22.93,0,*69
1509033810.65,6870,12.69,73964.3,-1.85,-17.59,-22.57,0,*6D
1509033811.88,6871,12.69,73958.0,-1.81,-18.01,-22.97,0,*66
1509033813.08,6872,12.69,73962.5,-1.81,-18.11,-23.09,0,*62
1509033814.33,6873,12.69,73966.0,-1.83,-18.01,-22.97,0,*66
1509033815.59,6874,12.69,73968.8,-1.83,-18.01,-22.97,0,*61
1509033816.82,6875,12.69,73964.8,-1.83,-18.17,-23.09,0,*61
1509033818.11,6876,12.69,73960.0,-1.77,-18.01,-23.03,0,*64
1509033819.33,6877,12.69,73960.5,-1.81,-18.25,-23.23,0,*68
1509033820.56,6878,12.69,73958.8,-1.77,-18.45,-23.39,0,*63
1509033821.82,6879,12.75,73962.5,-1.77,-18.49,-23.53,0,*62
1509033823.04,6880,12.69,73958.8,-1.77,-18.45,-23.39,0,*64
1509033824.3,6881,12.69,73958.5,-1.77,-18.21,-23.19,0,*65
1509033825.56,6882,12.75,73960.5,-1.77,-18.17,-23.03,0,*68
1509033826.79,6883,12.69,73952.8,-1.77,-18.17,-23.13,0,*68
1509033828.07,6884,12.69,73956.8,-1.77,-17.93,-22.73,0,*6B
1509033829.3,6885,12.69,73944.8,-1.75,-17.93,-22.83,0,*67
1509033830.55,6886,12.69,73942.8,-1.73,-18.01,-22.83,0,*66
1509033831.76,6887,12.69,73954.3,-1.75,-18.25,-23.09,0,*64
1509033832.99,6888,12.69,73958.8,-1.73,-18.17,-22.97,0,*6A
1509033834.24,6889,12.69,73948.3,-1.73,-18.31,-23.13,0,*62
1509033835.5,6890,12.69,73948.0,-1.73,-18.41,-23.23,0,*6E
1509033836.77,6891,12.69,73962.5,-1.73,-18.59,-23.49,0,*6A
1509033838.03,6892,12.69,73964.3,-1.71,-18.59,-23.49,0,*6B
1509033839.28,6893,12.69,73970.3,-1.71,-18.35,-23.29,0,*66
1509033840.51,6894,12.69,73966.0,-1.71,-18.89,-23.75,0,*6F
1509033841.74,6895,12.69,73962.5,-1.69,-18.69,-23.59,0,*67
1509033842.99,6896,12.69,73960.0,-1.69,-18.83,-23.69,0,*63
1509033844.22,6897,12.69,73962.8,-1.69,-18.69,-23.59,0,*65
1509033845.45,6898,12.69,73966.3,-1.67,-18.99,-23.85,0,*6A
1509033846.71,6899,12.69,73964.8,-1.69,-19.27,-24.05,0,*6E
1509033847.94,6900,12.69,73962.0,-1.71,-19.41,-24.35,0,*65
1509033849.19,6901,12.69,73958.5,-1.71,-19.65,-24.41,0,*61
1509033850.4,6902,12.69,73954.0,-1.71,-19.51,-24.35,0,*66
1509033851.68,6903,12.69,73948.0,-1.69,-19.65,-24.41,0,*6A
1509033852.91,6904,12.69,73950.0,-1.71,-19.65,-24.57,0,*63
1509033854.14,6905,12.69,73952.3,-1.71,-19.51,-24.25,0,*60
1509033855.4,6906,12.69,73950.8,-1.69,-19.47,-24.21,0,*69
1509033856.65,6907,12.69,73948.8,-1.69,-19.47,-24.15,0,*6F
1509033857.88,6908,12.75,73958.3,-1.69,-19.37,-24.05,0,*66
1509033859.12,6909,12.69,73958.5,-1.71,-19.51,-24.25,0,*6C
1509033860.4,6910,12.69,73962.3,-1.69,-19.65,-24.41,0,*68
1509033861.6,6911,12.69,73954.3,-1.71,-19.71,-24.47,0,*63
1509033862.83,6912,12.69,73950.5,-1.71,-20.09,-24.87,0,*69
1509033864.05,6913,12.69,73948.0,-1.73,-20.09,-24.77,0,*65
1509033865.29,6914,12.69,73948.0,-1.73,-20.09,-24.87,0,*6D
1509033866.52,6915,12.69,73950.3,-1.73,-19.95,-24.61,0,*6B
1509033867.76,6916,12.75,73952.0,-1.73,-19.81,-24.57,0,*68
1509033869.01,6917,12.69,73950.0,-1.75,-20.15,-24.83,0,*61
1509033870.26,6918,12.75,73960.8,-1.75,-19.61,-24.15,0,*68
1509033871.51,6919,12.69,73964.5,-1.73,-19.85,-24.57,0,*63
1509033872.73,6920,12.69,73966.0,-1.73,-19.95,-24.57,0,*68
1509033873.98,6921,12.69,73964.5,-1.73,-20.15,-24.61,0,*6E
1509033875.22,6922,12.75,73970.3,-1.73,-19.81,-24.47,0,*6E
1509033876.45,6923,12.69,73966.3,-1.75,-20.19,-24.93,0,*6B
1509033877.65,6924,12.69,73964.5,-1.75,-20.39,-24.93,0,*6E
1509033878.91,6925,12.69,73964.3,-1.73,-20.43,-25.03,0,*6C
1509033880.11,6926,12.69,73964.5,-1.75,-20.63,-25.13,0,*6A
1509033881.35,6927,12.69,73970.0,-1.73,-20.29,-24.87,0,*6F
1509033882.58,6928,12.69,73976.5,-1.75,-20.35,-24.93,0,*6E
1509033883.81,6929,12.69,73980.8,-1.77,-20.39,-24.97,0,*65
1509033885.05,6930,12.69,73980.8,-1.77,-20.29,-24.83,0,*69
1509033886.3,6931,12.69,73972.0,-1.77,-20.29,-24.67,0,*62
1509033887.57,6932,12.69,73974.8,-1.77,-20.19,-24.67,0,*62
1509033888.82,6933,12.69,73978.3,-1.77,-20.15,-24.51,0,*6A
1509033890.04,6934,12.69,73980.0,-1.77,-20.05,-24.51,0,*6C
1509033891.27,6935,12.69,73978.3,-1.75,-20.15,-24.51,0,*6E
1509033892.49,6936,12.69,73976.8,-1.75,-20.15,-24.51,0,*6D
1509033893.74,6937,12.69,73982.3,-1.75,-19.57,-23.95,0,*6F
1509033894.97,6938,12.69,73976.0,-1.75,-19.41,-23.79,0,*65
1509033896.2,6939,12.69,73976.3,-1.75,-19.47,-23.85,0,*61
1509033897.45,6940,12.69,73970.8,-1.73,-19.71,-24.11,0,*66
1509033898.68,6941,12.69,73968.0,-1.73,-19.99,-24.35,0,*67
1509033899.92,6942,12.69,73970.5,-1.73,-20.15,-24.47,0,*6F
1509033901.16,6943,12.75,73970.8,-1.73,-20.35,-24.61,0,*68
1509033902.42,6944,12.69,73964.5,-1.73,-20.59,-24.87,0,*6D
1509033903.66,6945,12.69,73956.8,-1.71,-20.43,-24.71,0,*6C
1509033904.86,6946,12.75,73960.3,-1.71,-20.59,-24.93,0,*68
1509033906.07,6947,12.69,73960.8,-1.71,-20.63,-24.93,0,*60
1509033907.35,6948,12.69,73962.8,-1.73,-20.49,-24.71,0,*69
1509033908.58,6949,12.69,73960.3,-1.71,-20.79,-25.09,0,*67
1509033909.78,6950,12.69,73966.0,-1.71,-20.73,-24.93,0,*67
1509033911.03,6951,12.69,73962.0,-1.71,-20.79,-25.03,0,*64
1509033912.29,6952,12.69,73956.5,-1.73,-20.89,-25.03,0,*6A
1509033913.53,6953,12.75,73964.3,-1.73,-20.79,-24.93,0,*6C
1509033914.77,6954,12.75,73970.3,-1.71,-20.89,-25.03,0,*6E
1509033915.97,6955,12.69,73958.5,-1.75,-21.13,-25.23,0,*6B
1509033917.2,6956,12.69,73956.0,-1.75,-21.39,-25.29,0,*6A
1509033918.45,6957,12.69,73958.8,-1.73,-21.39,-25.45,0,*67
1509033919.67,6958,12.69,73962.3,-1.75,-21.43,-25.45,0,*63
1509033920.9,6959,12.69,73962.0,-1.75,-21.13,-25.29,0,*6D
1509033922.14,6960,12.69,73958.5,-1.75,-21.23,-25.39,0,*65
1509033923.37,6961,12.69,73960.0,-1.75,-21.39,-25.29,0,*6E
1509033924.64,6962,12.69,73960.0,-1.73,-21.33,-25.45,0,*6B
1509033925.89,6963,12.69,73958.8,-1.77,-21.43,-25.45,0,*69
1509033927.15,6964,12.69,73960.8,-1.77,-21.43,-25.45,0,*6E
1509033928.38,6965,12.69,73966.8,-1.77,-21.63,-25.61,0,*6B
1509033929.64,6966,12.69,73970.5,-1.77,-21.43,-25.45,0,*6C
1509033930.86,6967,12.69,73968.8,-1.77,-21.43,-25.23,0,*6D
1509033932.06,6968,12.69,73968.3,-1.81,-21.47,-25.35,0,*68
1509033933.32,6969,12.69,73974.5,-1.77,-21.43,-25.29,0,*69
1509033934.55,6970,12.69,73978.3,-1.77,-21.39,-25.13,0,*65
1509033935.81,6971,12.69,73972.5,-1.77,-21.47,-25.45,0,*6E
1509033937.07,6972,12.69,73970.3,-1.77,-21.77,-25.75,0,*6D
1509033938.36,6973,12.69,73968.5,-1.77,-21.87,-25.81,0,*68
1509033939.55,6974,12.69,73982.8,-1.81,-22.03,-25.91,0,*68
1509033940.74,6975,12.69,73980.5,-1.81,-22.03,-25.91,0,*69
1509033941.97,6976,12.69,73980.0,-1.81,-22.03,-25.71,0,*64
1509033943.2,6977,12.69,73980.8,-1.81,-21.87,-25.87,0,*63
1509033944.43,6978,12.69,73972.8,-1.81,-21.73,-25.55,0,*68
1509033945.63,6979,12.69,73962.8,-1.81,-21.73,-25.39,0,*63
1509033946.87,6980,12.69,73962.3,-1.81,-21.87,-25.61,0,*63
1509033948.09,6981,12.69,73964.0,-1.83,-22.11,-25.91,0,*63
1509033949.32,6982,12.69,73974.0,-1.83,-22.11,-25.87,0,*67
1509033950.55,6983,12.69,73962.5,-1.81,-21.67,-25.23,0,*68
1509033951.77,6984,12.69,73952.0,-1.81,-21.67,-25.23,0,*6F
1509033952.98,6985,12.69,73954.0,-1.81,-21.73,-25.39,0,*60
1509033954.26,6986,12.69,73952.3,-1.83,-21.97,-25.55,0,*61
1509033955.51,6987,12.69,73952.0,-1.83,-22.03,-25.75,0,*6C
1509033956.77,6988,12.69,73944.0,-1.83,-22.11,-25.75,0,*60
1509033958.0,6989,12.69,73948.3,-1.85,-21.97,-25.39,0,*62
1509033959.23,6990,12.69,73946.5,-1.83,-21.47,-24.77,0,*6A
1509033960.46,6991,12.69,73952.0,-1.83,-21.39,-24.77,0,*62
1509033961.68,6992,12.69,73960.3,-1.77,-21.13,-24.51,0,*66
1509033962.93,6993,12.69,73964.8,-1.81,-21.57,-25.03,0,*68
1509033964.13,6994,12.69,73960.8,-1.81,-21.73,-25.35,0,*6C
1509033965.36,6995,12.69,73970.3,-1.81,-22.03,-25.55,0,*6F
1509033966.65,6996,12.69,73970.8,-1.77,-22.21,-25.75,0,*67
1509033967.91,6997,12.69,73972.3,-1.77,-21.87,-25.39,0,*61
1509033969.17,6998,12.69,73968.0,-1.81,-22.31,-25.75,0,*61
1509033970.37,6999,12.69,73968.8,-1.81,-22.63,-26.03,0,*65
1509033971.57,7000,12.69,73966.8,-1.81,-22.63,-26.03,0,*6D
1509033972.8,7001,12.69,73970.5,-1.83,-22.63,-26.03,0,*6E
1509033974.05,7002,12.69,73974.5,-1.83,-22.63,-26.17,0,*68
1509033975.28,7003,12.69,73976.0,-1.83,-22.53,-25.91,0,*67
1509033976.51,7004,12.69,73980.0,-1.83,-22.67,-26.03,0,*6F
1509033977.75,7005,12.69,73966.3,-1.83,-22.27,-25.61,0,*6D
1509033978.98,7006,12.69,73960.0,-1.83,-22.53,-25.91,0,*62
1509033980.2,7007,12.69,73952.8,-1.83,-22.63,-25.91,0,*60
1509033981.43,7008,12.69,73968.5,-1.83,-22.67,-26.07,0,*67
1509033982.66,7009,12.69,73970.5,-1.83,-22.63,-25.91,0,*6E
1509033983.86,7010,12.69,73972.8,-1.85,-22.57,-25.91,0,*67
1509033985.05,7011,12.69,73972.3,-1.85,-22.67,-25.91,0,*65
1509033986.31,7012,12.69,73972.5,-1.85,-22.47,-25.55,0,*6C
1509033987.54,7013,12.69,73968.5,-1.85,-21.87,-24.97,0,*6D
1509033988.82,7014,12.69,73970.3,-1.83,-21.83,-25.03,0,*64
1509033990.07,7015,12.69,73964.5,-1.83,-21.67,-24.77,0,*6D
1509033991.36,7016,12.69,73966.8,-1.83,-21.87,-25.03,0,*62
1509033992.61,7017,12.69,73964.3,-1.81,-21.87,-25.03,0,*61
1509033993.86,7018,12.69,73962.8,-1.77,-21.63,-24.67,0,*6E
1509033995.11,7019,12.69,73968.0,-1.77,-21.63,-24.67,0,*6F
1509033996.34,7020,12.69,73966.5,-1.77,-21.63,-24.77,0,*64
1509033997.6,7021,12.69,73964.5,-1.77,-21.73,-24.83,0,*6F
1509033998.83,7022,12.69,73964.5,-1.77,-21.93,-24.93,0,*63
1509034000.1,7023,12.69,73968.0,-1.73,-21.97,-24.87,0,*67
1509034001.31,7024,12.69,73966.3,-1.75,-22.03,-25.09,0,*6F
1509034002.52,7025,12.69,73966.3,-1.75,-22.37,-25.39,0,*6A
1509034003.73,7026,12.69,73964.5,-1.75,-22.57,-25.65,0,*66
1509034004.96,7027,12.69,73960.3,-1.75,-22.83,-25.81,0,*64
1509034006.22,7028,12.69,73962.5,-1.75,-22.73,-25.81,0,*64
1509034007.5,7029,12.69,73962.5,-1.73,-22.77,-25.75,0,*6C
1509034008.76,7030,12.69,73958.0,-1.73,-22.83,-25.75,0,*6F
1509034010.01,7031,12.69,73952.0,-1.75,-22.73,-25.75,0,*67
1509034011.25,7032,12.69,73958.8,-1.75,-23.03,-26.07,0,*64
1509034012.45,7033,12.69,73954.0,-1.75,-22.87,-25.91,0,*64
1509034013.68,7034,12.69,73952.5,-1.75,-23.29,-26.07,0,*6A
1509034014.88,7035,12.69,73954.5,-1.75,-22.97,-25.91,0,*63
1509034016.11,7036,12.69,73954.8,-1.75,-22.87,-25.81,0,*60
1509034017.34,7037,12.69,73948.3,-1.77,-23.13,-25.91,0,*6E
1509034018.63,7038,12.69,73948.5,-1.77,-23.19,-25.97,0,*6D
1509034019.84,7039,12.69,73952.5,-1.81,-23.13,-26.03,0,*61
1509034021.1,7040,12.69,73952.8,-1.77,-23.13,-25.97,0,*68
1509034022.31,7041,12.69,73966.5,-1.81,-23.39,-26.17,0,*63
1509034023.54,7042,12.75,73970.0,-1.81,-23.23,-26.03,0,*6E
1509034024.8,7043,12.69,73964.8,-1.77,-23.03,-25.91,0,*6C
1509034026.06,7044,12.69,73962.8,-1.77,-23.33,-26.07,0,*64
1509034027.28,7045,12.69,73968.3,-1.81,-23.39,-26.17,0,*67
1509034028.48,7046,12.69,73968.0,-1.81,-23.13,-26.03,0,*69
1509034029.68,7047,12.69,73966.8,-1.81,-23.59,-26.23,0,*64
1509034030.9,7048,12.69,73964.0,-1.81,-23.65,-26.23,0,*64
1509034032.1,7049,12.69,73968.8,-1.81,-23.59,-26.23,0,*6A
1509034033.31,7050,12.69,73968.5,-1.81,-23.43,-26.07,0,*6F
1509034034.56,7051,12.69,73966.0,-1.85,-23.65,-26.29,0,*62
1509034035.84,7052,12.69,73952.3,-1.83,-23.49,-26.17,0,*64
1509034037.08,7053,12.69,73956.3,-1.85,-23.69,-26.55,0,*67
1509034038.3,7054,12.69,73958.8,-1.85,-23.85,-26.61,0,*65
1509034039.56,7055,12.69,73964.8,-1.83,-23.75,-26.55,0,*6A
1509034040.77,7056,12.69,73968.0,-1.85,-23.69,-26.45,0,*63
1509034041.99,7057,12.69,73964.5,-1.85,-23.69,-26.39,0,*69
1509034043.22,7058,12.69,73964.8,-1.85,-23.49,-26.07,0,*69
1509034044.46,7059,12.69,73962.8,-1.85,-23.69,-26.29,0,*66
1509034045.68,7060,12.69,73964.8,-1.85,-23.69,-26.39,0,*6D
1509034046.91,7061,12.69,73966.0,-1.87,-23.79,-26.45,0,*64
1509034048.13,7062,12.69,73966.5,-1.87,-23.79,-26.45,0,*67
1509034049.37,7063,12.69,73960.5,-1.87,-23.69,-26.45,0,*67
1509034050.62,7064,12.69,73960.3,-1.87,-23.85,-26.45,0,*62
1509034051.89,7065,12.69,73958.8,-1.87,-23.69,-26.29,0,*6B
1509034053.13,7066,12.69,73960.3,-1.89,-23.69,-26.29,0,*66
1509034054.36,7067,12.69,73966.0,-1.87,-23.79,-26.45,0,*62
1509034055.63,7068,12.69,73966.0,-1.87,-23.99,-26.77,0,*62
1509034056.85,7069,12.69,73966.8,-1.89,-23.99,-26.49,0,*60
1509034058.1,7070,12.69,73966.5,-1.87,-23.65,-26.23,0,*69
1509034059.35,7071,12.69,73966.0,-1.89,-23.69,-26.29,0,*60
1509034060.58,7072,12.69,73974.0,-1.89,-23.75,-26.33,0,*65
1509034061.85,7073,12.69,73972.5,-1.87,-23.69,-26.13,0,*65
1509034063.07,7074,12.69,73968.3,-1.89,-23.39,-25.97,0,*66
1509034064.3,7075,12.69,73968.3,-1.87,-23.13,-25.65,0,*6C
1509034065.51,7076,12.69,73972.3,-1.89,-23.09,-25.61,0,*6E
1509034066.71,7077,12.69,73974.3,-1.89,-22.87,-25.35,0,*69
1509034067.95,7078,12.69,73972.3,-1.87,-22.87,-25.45,0,*6F
1509034069.17,7079,12.69,73970.8,-1.87,-22.87,-25.39,0,*65
1509034070.39,7080,12.69,73974.5,-1.87,-22.87,-25.39,0,*63
1509034071.62,7081,12.69,73970.5,-1.85,-23.03,-25.65,0,*64
1509034072.87,7082,12.69,73966.8,-1.85,-23.29,-25.81,0,*65
1509034074.13,7083,12.69,73964.5,-1.85,-23.19,-25.75,0,*6C
1509034075.36,7084,12.69,73962.0,-1.83,-23.13,-25.61,0,*62
1509034076.6,7085,12.69,73948.3,-1.83,-23.43,-26.07,0,*65
1509034077.81,7086,12.69,73948.3,-1.85,-23.69,-26.23,0,*6E
1509034079.09,7087,12.69,73950.3,-1.83,-23.65,-26.17,0,*62
1509034080.37,7088,12.69,73948.0,-1.83,-23.65,-26.17,0,*6D
1509034081.62,7089,12.69,73940.0,-1.85,-23.95,-26.55,0,*63
1509034082.84,7090,12.69,73936.5,-1.85,-23.53,-26.07,0,*66
1509034084.07,7091,12.69,73946.3,-1.85,-23.53,-26.07,0,*67
1509034085.32,7092,12.69,73952.8,-1.85,-23.69,-26.29,0,*61
1509034086.54,7093,12.69,73946.8,-1.85,-23.79,-26.29,0,*61
1509034087.77,7094,12.69,73940.3,-1.85,-23.99,-26.61,0,*64
1509034088.97,7095,12.69,73944.0,-1.85,-23.79,-26.23,0,*6D
1509034090.22,7096,12.69,73960.0,-1.85,-23.53,-26.13,0,*65
1509034091.5,7097,12.69,73960.5,-1.83,-24.11,-26.77,0,*61
1509034092.71,7098,12.69,73954.3,-1.85,-23.79,-26.39,0,*6B
1509034093.95,7099,12.69,73964.3,-1.87,-23.85,-26.45,0,*60
1509034095.2,7100,12.69,73968.5,-1.85,-24.11,-26.71,0,*6E
1509034096.46,7101,12.69,73972.0,-1.87,-23.79,-26.29,0,*69
1509034097.7,7102,12.69,73970.5,-1.87,-23.99,-26.61,0,*68
1509034098.93,7103,12.69,73968.5,-1.89,-23.99,-26.61,0,*67
1509034100.15,7104,12.69,73962.8,-1.89,-24.05,-26.55,0,*65
1509034101.38,7105,12.69,73964.5,-1.87,-23.79,-26.39,0,*6C
1509034102.64,7106,12.69,73972.3,-1.89,-23.85,-26.33,0,*68